COSMOS 2151

Last updated on Wed Nov 05 2025 00:02:14 GMT+0000 (Coordinated Universal Time)

1 21422U 91042A 25308.65565918 .00002508 00000+0 20199-3 0 9998 2 21422 82.4994 204.1921 0013931 117.1265 243.1382 14.99474892844453
UTC large
Height (km)
Speed (km/s)
/
Latitude / Longitude
Inclination (degrees)
Orbital Period (minutes)
Azimuth
Elevation
Range (km)
Doppler Factor

Next 0 passes for location: London (51.5072 / 0.1276)

Sorry there are no passes over London.